星链-4496 (STARLINK-4496 )

导读 | 豆包AI

STARLINK-4496是美国SpaceX公司星链星座的成员,于2022年8月10日发射入轨,属于星链低轨互联网卫星星座组网卫星。星链星座旨在构建全球覆盖的卫星互联网通信系统,该卫星承担为全球偏远地区、海上、航空等场景提供宽带互联网接入服务的任务,依托低轨部署降低通信时延,支撑星座服务能力扩展。

基本信息
目录编号:
53412
目录名称:
STARLINK-4496
国际标识:
2022-097AA
轨道中心:
EARTH
卫星名称:
星链-4496
卫星全名:
星链-4496 (STARLINK-4496 )
卫星状态:
在轨 (已飞行1359 天)
发射日期:
2022-08-10 UTC
国别 :
美国 (US)
星等 :
--
轨道信息
数据来源 国际轨道数据
星历时间: 2026-04-30T08:49:53+0800
17小时前
查看轨道信息
半长轴: 6917.881km
偏心率: 0.000126
轨道倾角: 53.218°
近地点辐角 93.650°
升交点赤经 243.624°
平近点角 266.463°
近地点: 538.872km
远地点: 540.616km
周期: 95.438分钟
每日圈数: 15.0884
详细信息
固有亮度:
5
最大亮度:
2.5
卫星平台:
Starlink v1.5
覆盖范围:
全球
运营商:
太空探索技术公司
运营商所在国:
美国
制造商(研发单位):
太空探索技术公司
制造商所在国:
美国
使用方式:
暂无
卫星简介
星链(Starlink)计划是由太空探索技术公司(SpaceX)提出的一个巨型低轨卫星互联网星座项目,计划在2019年至2024年间在太空搭建由约1.2万颗卫星组成的“星链”网络,其中1584颗将部署在地球上空550千米处的近地轨道,并从2020年开始工作。该卫星仍在工作。
2D轨道图
3D轨道图
轨道高度分析图
轨道倾角分析图
轨道综合分析图
查看轨道综合分析图